Flag for United Kingdom Weather past 2 weeks in Coventry, England, United Kingdom

Now
52 °F

Passing clouds.


Feels Like: 47 °F
Forecast: 49 / 53 °F
Wind: 14 mph from Southwest

Location: Coventry Airport

Current Time: Dec 23, 2014 at 3:15:19 AM

Latest Report: Dec 23, 2014 at 1:50 AM


Visibility: N/A

Pressure: 29.98 "Hg

Humidity: 88%

Dew point: 48 °F

Location of CoventryLocation

Historic Weather in Coventry — Graph

°F

Coventry temperature yesterday

Maximum temperature yesterday: 55 °F (at 6:50 AM)
Minimum temperature yesterday: 52 °F (at 11:20 PM)
Average temperature yesterday: 54 °F

Past Weeks' High & Low Weather Summary

 TemperatureHumidityPressure
High57 °F (Dec 18, 11:20 AM)100% (Dec 8, 10:50 PM)30.39 "Hg (Dec 8, 10:50 PM)
Low30 °F (Dec 13, 8:20 AM)62% (Dec 10, 2:50 PM)29.21 "Hg (Dec 12, 6:20 AM)
Average45 °F86%29.88 "Hg
* Reported Dec 8 6:50 AM — Dec 23 1:50 AM, Coventry, Weather by CustomWeather, © 2014

Note: Actual official high and low records may vary slightly from our data, if they occured in-between our weather recording intervals... More about our weather records

Advertising

Coventry weather history for previous 24 hours

 ConditionsComfort  
Time TempWeatherWind HumidityBarometerVisibility
1:50 AM
Dec 23
52 °FPassing clouds.14 mph88%29.98 "HgN/A
1:20 AM54 °FPassing clouds.20 mph77%29.98 "HgN/A
12:50 AM54 °FPassing clouds.23 mph82%29.98 "HgN/A
12:20 AM54 °FPassing clouds.16 mph82%29.98 "HgN/A
11:50 PM
Dec 22
54 °FPassing clouds.14 mph82%29.98 "HgN/A
11:20 PM52 °FPassing clouds.13 mph88%29.98 "HgN/A
10:20 PM54 °FPassing clouds.20 mph82%29.95 "HgN/A
9:50 PM54 °FPassing clouds.18 mph82%29.95 "HgN/A
9:20 PM54 °FPassing clouds.18 mph82%29.95 "HgN/A
8:50 PM54 °FPassing clouds.17 mph82%29.95 "HgN/A
8:20 PM54 °FPassing clouds.20 mph82%29.95 "HgN/A
7:50 PM54 °FPassing clouds.17 mph82%29.95 "HgN/A
7:20 PM54 °FPassing clouds.20 mph82%29.95 "HgN/A
6:50 PM54 °FPassing clouds.23 mph77%29.95 "HgN/A
6:20 PM54 °FPassing clouds.20 mph77%29.95 "HgN/A
5:50 PM54 °FPassing clouds.21 mph82%29.95 "HgN/A
5:20 PM54 °FPassing clouds.22 mph82%29.95 "HgN/A
4:50 PM54 °FPassing clouds.20 mph82%29.95 "HgN/A
4:20 PM54 °FPassing clouds.18 mph82%29.95 "HgN/A
3:50 PM54 °FScattered clouds.21 mph88%29.92 "HgN/A
3:20 PM54 °FPartly sunny.25 mph88%29.92 "HgN/A
2:50 PM55 °FPartly sunny.17 mph82%29.92 "HgN/A
2:20 PM55 °FPartly sunny.17 mph82%29.95 "HgN/A
1:50 PM55 °FPartly sunny.20 mph82%29.95 "HgN/A
1:20 PM55 °FPartly sunny.21 mph82%29.95 "HgN/A
12:50 PM55 °FPartly sunny.20 mph82%29.95 "HgN/A
11:50 AM55 °FPartly sunny.21 mph82%29.95 "HgN/A
11:20 AM55 °FPartly sunny.21 mph82%29.95 "HgN/A
10:50 AM55 °FPartly sunny.22 mph82%29.95 "HgN/A
10:20 AM55 °FPartly sunny.20 mph77%29.95 "HgN/A
9:50 AM55 °FPartly sunny.20 mph77%29.95 "HgN/A
9:20 AM55 °FScattered clouds.20 mph72%29.98 "HgN/A
8:50 AM55 °FPassing clouds.22 mph72%29.95 "HgN/A
8:20 AM54 °FPassing clouds.23 mph82%29.95 "HgN/A
7:50 AM54 °FPassing clouds.23 mph82%29.95 "HgN/A
7:20 AM55 °FPassing clouds.22 mph77%29.95 "HgN/A
6:50 AM55 °FPassing clouds.22 mph77%29.95 "HgN/A
Weather by CustomWeather, © 2014

See weather overviewHow to use our weather pages